User: anonymous   Login
Location: Dammartin
(48.9032°N, 1.6195°E)
Time: 02:51:45
(UTC+00:00)
Language:

BlueWalker 3 - Orbit

View from above orbital plane
View from above orbital plane
View from above satellite
View from above satellite

Ground track
Ground track

The orbit data is extracted from the following two-line orbital elements,

1 53807U 22111AL  24206.51704840  .00008749  00000-0  34046-3 0  9991
2 53807  53.2353  21.5212 0008023 198.0292 162.0424 15.26779387103933
Epoch (UTC): 24 July 2024 12:24:32
Eccentricity: 0.0008023
inclination: 53.2353°
perigee height: 480 km
apogee height: 491 km
right ascension of ascending node: 21.5212°
argument of perigee: 198.0292°
revolutions per day: 15.26779387
mean anomaly at epoch: 162.0424°
orbit number at epoch: 10393

The dashed part of the orbit path shows where the satellite is in the earth's shadow,  

DLR